GOES-T [+]

Last updated on Tue Mar 15 2022 00:02:25 GMT+0000 (Coordinated Universal Time)

1 51850U 22021A 22073.63767516 -.00000150 00000+0 00000+0 0 9996 2 51850 1.3541 332.9354 0948742 181.7882 138.5919 1.16963075 197
UTC large
Height (km)
Speed (km/s)
/
Latitude / Longitude
Inclination (degrees)
Orbital Period (minutes)
Azimuth
Elevation
Range (km)
Doppler Factor

Next 0 passes for location: London (51.5072 / 0.1276)

Sorry there are no passes over London.